COSMOS 397 DEB, 5017

Orbit data source: Space-Track

COSMOS 397 DEB, 5017 is space debris in LEO originally from a launch on Thu, 25 Feb 1971 UTC launched from the Tyuratam Missile And Space Complex (TTMTR). Debris objects in space refer to the collection of defunct objects orbiting the Earth. Examples of debris include non-operational satellites, rocket bodies, and fragments generated from explosions, collisions, or faulty payload assembly.

Loading next visibility...
Identifier
5017, 1971-015L
Orbit
LEO
Country
Flag of CISCIS
Related business
Manufacturer
Unknown
Mission
Spacecraft
Bus & Motor
Unknown
Mass
Unknown
Launch date (UTC)
1971-02-25 (55 years ago)
Launch vehicle
Unknown
Launch site
Tyuratam Missile And Space Complex (TTMTR)
Object type
Payload
Rocket body
Debris
Shape & HBR
Unknown shape, 0.4 m
Radar Cross Section
Medium (>0.1 m² and <1 m²)

Expand to show TLE details & history
Last TLE update: 6 hours ago

TLE from 6 hours ago
0 COSMOS 397 DEB
1 05017U 71015L   25349.93574322  .00003286  00000-0  10558-2 0  9995
2 05017  65.7059 163.3649 0721841 213.0727 142.3171 13.47550541614863
Epoch: 2025-12-15T22:27Z
TLE epoch observation values (Epoch: 2025-12-15T22:27:28.214Z)
Latitude
0.00003°
Longitude
101.67019°
Altitude
1,522.755 km
Speed
6.892 km/s
True Right ascension
10h 53m 27s
True Declination
0° 00' 00"
Sunlit
Object was in daylight at epoch
Visualization orbit readout
Latitude
Unknown
Longitude
Unknown
Altitude
Unknown
Speed
Unknown
Apparent Right ascension
Unknown
Apparent Declination
Unknown
Sunlit
N/A
Visualization observer readout
Local Sidereal Time
03:08:07
Azimuth
Unknown
Elevation
Unknown
Doppler factor
Unknown
Orbital elements
Apogee altitude
1,618.171 km
Perigee altitude
541.478 km
Semi-major axis
7,457.962 km
Eccentricity
0.07218
Inclination
65.7059°
RAAN
163.3649°
Arg. of periapsis
213.0727°
True anomaly
147.03042°
Mean anomaly
142.3171°
Eccentric anomaly
144.70664°
Mean motion
3.36987 °/min
Orbital period
106.83 mins
BSTAR
0.0010558
Loading maneuver chart data...
Computing Atmospheric mass density...

Documentation

Showing up to 5 results
|